Regional Weather Roundup
Issued by NWS Newport/Morehead, NC

Current Version | Previous Version | Text Only | Print | Product List | Glossary Off
Versions: 1 2 3 4 5 6 7 8 9 10 11 12 13 14 15 16 17 18 19 20 21 22 23 24 25 26 27 28 29 30 31 32 33 34 35 36 37 38 39 40 41 42 43 44 45 46 47 48 49 50
000 ASUS42 KMHX 300525 RWRMHX WEATHER ROUNDUP FOR EASTERN NORTH CAROLINA NATIONAL WEATHER SERVICE NEWPORT/MOREHEAD CITY NC 100 AM EDT SUN APR 30 2017 NOTE: "FAIR" INDICATES FEW OR NO CLOUDS BELOW 12,000 FEET WITH NO SIGNIFICANT WEATHER AND/OR OBSTRUCTIONS TO VISIBILITY NCZ015>017-031-032-045>047-102-103-300600- NORTH COAST CITY SKY/WX TMP DP RH WIND PRES REMARKS EDENTON CLEAR 74 70 87 SW12 30.17S ELIZABETH CITY CLEAR 73 71 93 SW17G24 30.14F KITTY HAWK CLEAR 73 69 87 CALM 30.15S MANTEO CLEAR 73 69 89 SW14 30.17S $$ NCZ045>047-081-094-103-104-300600- CENTRAL COAST CITY SKY/WX TMP DP RH WIND PRES REMARKS FRISCO CLEAR 73 70 90 SW12 30.20F FOG $$ NCZ095-097-098-100-101-300600- SOUTHERN COAST CITY SKY/WX TMP DP RH WIND PRES REMARKS BEAUFORT CLEAR 73 73 100 SW10 30.20F CEDAR ISLAND NOT AVBL JACKSONVILLE MOCLDY 72 72 100 S5 30.19S PINEY ISLAND CLEAR N/A N/A N/A S8 30.20S WILMINGTON CLOUDY 73 71 93 S8 30.20F $$ NCZ011>013-027>030-043-044-078>080-089-090>093-098-300600- COASTAL PLAIN CITY SKY/WX TMP DP RH WIND PRES REMARKS AHOSKIE N/A 72 69 91 S6 30.16S CLINTON PTCLDY 71 71 99 SW3 30.20R ELIZABETHTOWN MOCLDY 72 71 97 S5 30.20S GOLDSBORO PTCLDY 73 73 100 SW6 30.17S GREENVILLE PTCLDY 72 70 94 SW8 30.19S HAVELOCK CLEAR 73 69 87 S7 30.20 KENANSVILLE MOCLDY 72 70 94 CALM 30.20S KINSTON PTCLDY 72 69 89 SW8 30.20S NEW BERN CLEAR 70 70 100 SW3 30.20F RICHLANDS PTCLDY 70 69 97 S7 30.20S ROCKY MOUNT PTCLDY 73 70 90 S9 30.18R WASHINGTON PTCLDY 71 69 92 S6 30.19S WHITEVILLE CLOUDY 71 70 95 S3 30.19F $$ AMZ130-135-150-152-154-156-158-170-250-252-270-ANZ085-086-088-633-658-670-300600- MARINE OBSERVATIONS STATION/POSITION TIME TEMP WIND PRES WAVE SWELL AIR SEA DIR/SP/G HT/PER HT/PER (UTC) (F) (DEG/KT/KT) (MB) (FT/S) (FT/S) CHESAPEAKE LIGHT NOT AVBL 64 E VA BEACH 0450 63 58 220/ 10/ 10 1021.8 4/ 6 3/ 6 DUCK 0500 73 58 220/ 16/ 19 1020.5 2 E DUCK 0500 60 N/A 2/ 6 OREGON INLET 0500 74 78 220/ 20/ 24 1021.1 13E OREGON INLT 0448 64 N/A 3/ 5 2/ 7 HATTERAS CG 0500 72 75 210/ 9/ 12 1022.4 DIAMOND BUOY 0450 76 75 220/ 16/ 17 1022.7 3/ 5 2/ 7 CAPE LOOKOUT 0500 73 210/ 8/ 11 1022.4 BEAUFORT LAB 0500 73 72 210/ 7/ 11 1022.0 30 SE NEW RVR IN 0508 72 210/ 10/ 12 1022.9 30 SE NEW RVR IN 0513 73 N/A 3/ 7 27 SE WRIGHTSVLE 0508 74 74 200/ 8/ 12 1022.5 5 SE WRIGHTSVLE 0508 73 71 200/ 10/ 14 1022.6 225 S CAPE HAT 0450 74 76 180/ 10/ 12 1024.9 3/ 7 2/ 7 41 SE CHARLESTON 0510 76 76 150/ 10/ 12 1022.1 $$

USA.gov is the U.S. government's official web portal to all federal, state and local government web resources and services.